Location: *
(44.1392°N, 4.8079°E)
Time: 08:55:38
(UTC+00:00)

Helios 1B rocket - Pass Details

Date: 21 June 2021
Orbit: 573 x 583 km, 98.2° (Epoch: 02 August)

Event Time Altitude Azimuth Distance (km) Brightness Sun altitude
Rises 02:27:41 0° 1° (N) 2,798 6.8 -12.6°
Reaches altitude 10° 02:30:09 10° 347° (NNW) 1,893 5.6 -12.3°
Maximum altitude 02:33:25 24° 294° (WNW) 1,221 3.9 -11.9°
Enters shadow 02:35:55 14° 248° (WSW) 1,638 4.2 -11.6°
